WP3OF Weather Reports


Display with metric or nautical units.
time (UTC)temp
F
wind
direction
speed
MPH
gust
MPH
rain 1hr
in
rain 24hr
in
rain mn
in
humidity
%
barometer
mb
20260507195504 80 63 9.0 16.0 0.00 0.00 0.00 77 1017.7
20260507195002 81 39 10.0 13.0 0.00 0.00 0.00 76 1017.9
20260507194458 81 66 11.0 13.0 0.00 0.00 0.00 76 1017.6
20260507193954 82 65 12.0 17.0 0.00 0.00 0.00 76 1018.0
20260507193452 81 54 14.0 19.0 0.00 0.00 0.00 76 1017.9
20260507192948 81 70 18.0 21.0 0.00 0.00 0.00 75 1018.1
20260507192444 82 59 12.0 19.0 0.00 0.00 0.00 75 1017.8
20260507191942 82 53 16.0 21.0 0.00 0.00 0.00 74 1017.7
20260507191437 82 52 13.0 23.0 0.00 0.00 0.00 71 1017.9
20260507190934 82 114 10.0 13.0 0.00 0.00 0.00 72 1018.1
20260507190432 81 50 13.0 19.0 0.00 0.00 0.00 74 1018.1
20260507185931 83 79 11.0 17.0 0.00 0.00 0.00 73 1017.9
20260507185427 83 42 8.0 14.0 0.00 0.00 0.00 73 1017.7
20260507184924 82 54 8.0 14.0 0.00 0.00 0.00 73 1017.9
20260507184422 82 58 8.0 17.0 0.00 0.00 0.00 73 1018.1
20260507183919 82 47 12.0 15.0 0.00 0.00 0.00 73 1018.0
20260507183416 81 44 15.0 22.0 0.00 0.00 0.00 74 1018.3
20260507182914 82 46 11.0 13.0 0.00 0.00 0.00 75 1018.3
20260507182409 82 68 14.0 21.0 0.00 0.00 0.00 76 1018.0
20260507181906 82 30 14.0 16.0 0.00 0.00 0.00 75 1018.1
20260507181402 82 22 14.0 16.0 0.00 0.00 0.00 75 1018.3
20260507180859 82 22 13.0 18.0 0.00 0.00 0.00 75 1018.1
20260507180355 82 31 12.0 22.0 0.00 0.00 0.00 72 1018.4
20260507175851 81 27 15.0 19.0 0.00 0.00 0.00 75 1018.4
20260507175348 81 44 16.0 21.0 0.00 0.00 0.00 73 1018.6
20260507174846 81 45 15.0 21.0 0.00 0.00 0.00 75 1018.6
20260507174343 82 41 11.0 18.0 0.00 0.00 0.00 74 1018.6
20260507173840 82 62 10.0 18.0 0.00 0.00 0.00 72 1018.6
20260507173337 82 70 12.0 17.0 0.00 0.00 0.00 72 1018.7
20260507172833 82 36 9.0 17.0 0.00 0.00 0.00 73 1018.6
20260507172331 82 66 13.0 16.0 0.00 0.00 0.00 71 1019.0
20260507171826 82 40 18.0 23.0 0.00 0.00 0.00 71 1018.9
20260507171323 82 63 13.0 18.0 0.00 0.00 0.00 70 1018.9
20260507170820 82 46 16.0 19.0 0.00 0.00 0.00 70 1019.0
20260507170317 82 68 13.0 19.0 0.00 0.00 0.00 71 1019.1
20260507165813 82 30 15.0 18.0 0.00 0.00 0.00 73 1019.1
20260507165309 82 68 13.0 18.0 0.00 0.00 0.00 72 1019.2
20260507164805 82 35 14.0 22.0 0.00 0.00 0.00 74 1019.4
20260507164302 82 72 11.0 14.0 0.00 0.00 0.00 73 1019.5
20260507163759 81 49 13.0 19.0 0.00 0.00 0.00 74 1019.4
20260507163257 82 30 12.0 15.0 0.00 0.00 0.00 76 1019.5
20260507162753 82 46 11.0 15.0 0.00 0.00 0.00 75 1019.6
20260507162249 82 25 8.0 15.0 0.00 0.00 0.00 76 1019.2
20260507161746 81 49 16.0 19.0 0.00 0.00 0.00 77 1019.8
20260507161243 82 45 16.0 18.0 0.00 0.00 0.00 76 1019.9
20260507160738 81 12 11.0 22.0 0.00 0.00 0.00 77 1019.7
20260507160235 82 41 11.0 18.0 0.00 0.00 0.00 77 1019.7
20260507155731 82 30 11.0 15.0 0.00 0.00 0.00 76 1019.7
20260507155227 82 34 11.0 17.0 0.00 0.00 0.00 77 1019.8
20260507154724 82 63 10.0 14.0 0.00 0.00 0.00 74 1019.8
20260507154221 82 44 17.0 19.0 0.00 0.00 0.00 79 1019.9
20260507153718 83 24 11.0 15.0 0.00 0.00 0.00 75 1019.7
20260507153214 82 53 9.0 17.0 0.00 0.00 0.00 75 1020.0
20260507152711 82 42 7.0 13.0 0.00 0.00 0.00 74 1020.0
20260507152207 82 43 16.0 19.0 0.00 0.00 0.00 73 1019.8
20260507151703 82 43 13.0 17.0 0.00 0.00 0.00 70 1019.9
20260507151200 82 38 12.0 15.0 0.00 0.00 0.00 70 1019.8
20260507150657 82 37 16.0 19.0 0.00 0.00 0.00 71 1020.0
20260507150154 82 31 14.0 15.0 0.00 0.00 0.00 72 1019.9
20260507145649 83 56 7.0 11.0 0.00 0.00 0.00 72 1019.9
20260507145147 82 34 6.0 14.0 0.00 0.00 0.00 73 1019.9
20260507144643 83 59 13.0 15.0 0.00 0.00 0.00 73 1019.9
20260507144141 82 38 8.0 14.0 0.00 0.00 0.00 75 1019.9
20260507143637 82 61 11.0 16.0 0.00 0.00 0.00 74 1019.9
20260507143135 82 33 10.0 13.0 0.00 0.00 0.00 73 1020.0
20260507142630 82 29 5.0 7.0 0.00 0.00 0.00 74 1019.8
20260507142127 82 53 8.0 15.0 0.00 0.00 0.00 73 1020.1
20260507141623 82 49 7.0 11.0 0.00 0.00 0.00 75 1020.1
20260507141120 82 38 6.0 13.0 0.00 0.00 0.00 73 1020.1
20260507140617 82 33 9.0 11.0 0.00 0.00 0.00 73 1020.0
20260507140114 81 33 8.0 10.0 0.00 0.00 0.00 73 1020.1
20260507135611 81 67 6.0 8.0 0.00 0.00 0.00 75 1020.1
20260507135109 81 60 7.0 10.0 0.00 0.00 0.00 75 1020.2
20260507134605 81 83 5.0 8.0 0.00 0.00 0.00 74 1020.3
20260507134101 80 46 6.0 10.0 0.00 0.00 0.00 74 1020.0
20260507133557 81 41 11.0 11.0 0.00 0.00 0.00 72 1020.0
20260507133055 80 44 8.0 9.0 0.00 0.00 0.00 72 1020.2
20260507132551 80 21 10.0 13.0 0.00 0.00 0.00 73 1020.2
20260507132048 81 46 7.0 10.0 0.00 0.00 0.00 70 1020.2
20260507131545 81 28 10.0 10.0 0.00 0.00 0.00 71 1020.1
20260507131043 80 44 9.0 10.0 0.00 0.00 0.00 71 1020.2
20260507130539 80 33 4.0 8.0 0.00 0.00 0.00 73 1020.2
20260507130037 79 42 4.0 9.0 0.00 0.00 0.00 73 1020.2
20260507125536 80 22 9.0 11.0 0.00 0.00 0.00 73 1020.0
20260507125032 81 17 9.0 10.0 0.00 0.00 0.00 70 1020.0
20260507124528 81 50 6.0 9.0 0.00 0.00 0.00 66 1020.0
20260507124026 81 29 8.0 9.0 0.00 0.00 0.00 66 1019.7
20260507123525 81 40 4.0 7.0 0.00 0.00 0.00 67 1019.9
20260507123021 81 32 3.0 6.0 0.00 0.00 0.00 70 1019.9
20260507122516 81 123 2.0 6.0 0.00 0.00 0.00 65 1019.8
20260507122012 81 107 6.0 7.0 0.00 0.00 0.00 66 1019.9
20260507121508 80 74 3.0 8.0 0.00 0.00 0.00 66 1019.8
20260507121004 81 77 6.0 7.0 0.00 0.00 0.00 67 1019.3
20260507120500 82 100 4.0 4.0 0.00 0.00 0.00 63 1019.5
20260507115957 81 132 2.0 2.0 0.00 0.00 0.00 65 1019.2
20260507115454 80 129 5.0 6.0 0.00 0.00 0.00 66 1019.1
20260507114949 80 134 1.0 4.0 0.00 0.00 0.00 67 1019.3
20260507114446 80 139 5.0 6.0 0.00 0.00 0.00 67 1019.1
20260507113943 80 136 0.0 3.0 0.00 0.00 0.00 69 1019.0
20260507113440 80 141 1.0 2.0 0.00 0.00 0.00 68 1018.8
20260507112937 79 146 2.0 4.0 0.00 0.00 0.00 71 1018.9
20260507112435 78 130 2.0 3.0 0.00 0.00 0.00 71 1018.9
20260507111931 78 159 1.0 3.0 0.00 0.00 0.00 72 1018.7
20260507111429 77 180 1.0 2.0 0.00 0.00 0.00 73 1018.8
20260507110925 76 178 2.0 3.0 0.00 0.00 0.00 74 1018.9
20260507110421 76 173 2.0 2.0 0.00 0.00 0.00 73 1018.9
20260507105918 76 158 1.0 3.0 0.00 0.00 0.00 73 1019.1
20260507105415 75 178 2.0 4.0 0.00 0.00 0.00 76 1019.0
20260507104912 75 168 2.0 3.0 0.00 0.00 0.00 76 1018.8
20260507104408 75 176 3.0 4.0 0.00 0.00 0.00 76 1018.9
20260507103904 75 178 2.0 3.0 0.00 0.00 0.00 75 1019.0
20260507103401 74 182 3.0 3.0 0.00 0.00 0.00 77 1018.8
20260507102857 72 179 4.0 4.0 0.00 0.00 0.00 82 1019.0
20260507102354 73 193 4.0 4.0 0.00 0.00 0.00 81 1018.5
20260507101850 75 180 2.0 2.0 0.00 0.00 0.00 76 1018.6
20260507101345 74 132 0.0 0.0 0.00 0.00 0.00 75 1018.7
20260507100842 75 132 0.0 0.0 0.00 0.00 0.00 76 1018.8
20260507100341 76 125 1.0 2.0 0.00 0.00 0.00 73 1018.6
20260507095838 75 137 3.0 4.0 0.00 0.00 0.00 74 1018.6
20260507095335 76 137 4.0 4.0 0.00 0.00 0.00 73 1018.6
20260507094832 75 140 4.0 4.0 0.00 0.00 0.00 73 1018.6
20260507094328 73 133 3.0 3.0 0.00 0.00 0.00 77 1018.3
20260507093825 73 160 0.0 1.0 0.00 0.00 0.00 79 1018.3
20260507093324 73 172 2.0 2.0 0.00 0.00 0.00 79 1018.0
20260507092821 74 148 3.0 3.0 0.00 0.00 0.00 78 1018.5
20260507092318 74 139 2.0 3.0 0.00 0.00 0.00 77 1018.0
20260507091814 73 146 1.0 2.0 0.00 0.00 0.00 79 1018.2
20260507091311 73 172 1.0 2.0 0.00 0.00 0.00 80 1018.4
20260507090811 73 175 2.0 2.0 0.00 0.00 0.00 80 1018.1
20260507090308 73 172 1.0 2.0 0.00 0.00 0.00 80 1018.2
20260507085805 73 170 2.0 3.0 0.00 0.00 0.00 81 1018.3
20260507085302 73 176 3.0 4.0 0.00 0.00 0.00 82 1018.5
20260507084759 73 168 2.0 3.0 0.00 0.00 0.00 79 1018.3
20260507084255 74 163 1.0 1.0 0.00 0.00 0.00 75 1018.3
20260507083754 74 172 2.0 2.0 0.00 0.00 0.00 77 1018.5
20260507083249 74 154 1.0 2.0 0.00 0.00 0.00 79 1018.6
20260507082745 74 170 2.0 4.0 0.00 0.00 0.00 79 1018.6
20260507082242 74 178 2.0 3.0 0.00 0.00 0.00 79 1018.4
20260507081738 73 151 1.0 2.0 0.00 0.00 0.00 79 1018.3
20260507081235 73 175 2.0 2.0 0.00 0.00 0.00 82 1018.3
20260507080731 74 177 2.0 3.0 0.00 0.00 0.00 81 1018.7
20260507080227 73 178 3.0 3.0 0.00 0.00 0.00 80 1018.5
20260507075723 74 176 2.0 2.0 0.00 0.00 0.00 79 1018.3
20260507075220 74 162 1.0 3.0 0.00 0.00 0.00 77 1018.3
20260507074716 75 147 2.0 4.0 0.00 0.00 0.00 76 1018.4
20260507074214 74 141 6.0 6.0 0.00 0.00 0.00 76 1018.5
20260507073710 74 145 4.0 4.0 0.00 0.00 0.00 78 1018.4
20260507073201 75 134 4.0 4.0 0.00 0.00 0.00 77 1018.4
20260507072659 75 139 4.0 6.0 0.00 0.00 0.00 77 1018.5
20260507072156 74 136 2.0 2.0 0.00 0.00 0.00 78 1018.5
20260507071654 75 121 3.0 4.0 0.00 0.00 0.00 78 1018.6
20260507071149 75 128 4.0 4.0 0.00 0.00 0.00 77 1018.6
20260507070647 76 129 3.0 4.0 0.00 0.00 0.00 76 1018.7
20260507070143 76 118 4.0 4.0 0.00 0.00 0.00 75 1018.7
20260507065639 76 122 5.0 6.0 0.00 0.00 0.00 75 1018.7
20260507065136 76 135 3.0 3.0 0.00 0.00 0.00 75 1018.8
20260507064634 76 140 3.0 3.0 0.00 0.00 0.00 76 1018.8
20260507064133 76 156 1.0 3.0 0.00 0.00 0.00 78 1018.9
20260507063630 75 140 1.0 2.0 0.00 0.00 0.00 79 1018.9
20260507063127 76 165 1.0 1.0 0.00 0.00 0.00 81 1019.2
20260507062623 75 130 2.0 2.0 0.00 0.00 0.00 78 1019.3
20260507062121 75 142 0.0 0.0 0.00 0.00 0.00 81 1019.2
20260507061619 75 143 0.0 0.0 0.00 0.00 0.00 82 1019.1
20260507061117 75 122 0.0 1.0 0.00 0.00 0.00 82 1019.3
20260507060615 75 162 1.0 1.0 0.00 0.00 0.00 81 1019.4
20260507060111 75 174 2.0 2.0 0.00 0.00 0.00 84 1019.3
20260507055606 75 167 0.0 2.0 0.00 0.00 0.00 84 1019.7
20260507055102 76 165 0.0 1.0 0.00 0.00 0.00 81 1019.5
20260507054558 76 170 0.0 0.0 0.00 0.00 0.00 80 1019.6
20260507054056 77 146 2.0 2.0 0.00 0.00 0.00 77 1019.7
20260507053553 77 140 4.0 4.0 0.00 0.00 0.00 75 1019.9
20260507053052 77 115 4.0 6.0 0.00 0.00 0.00 76 1019.6
20260507052549 76 104 4.0 4.0 0.00 0.00 0.00 80 1019.7
20260507052046 76 116 5.0 6.0 0.00 0.00 0.00 84 1019.7
20260507051543 76 120 5.0 7.0 0.00 0.00 0.00 84 1019.8
20260507051040 76 124 4.0 6.0 0.00 0.00 0.00 85 1020.0
20260507050536 76 112 5.0 6.0 0.00 0.00 0.00 86 1020.0
20260507050033 76 125 5.0 6.0 0.00 0.00 0.00 87 1020.3
20260507045530 76 105 4.0 6.0 0.00 0.00 0.00 86 1020.1
20260507045027 76 134 4.0 6.0 0.00 0.00 0.00 86 1020.6
20260507044524 76 110 6.0 7.0 0.00 0.00 0.00 85 1020.3
20260507044021 76 107 4.0 6.0 0.00 0.00 0.00 86 1020.4
20260507043516 77 119 4.0 7.0 0.00 0.00 0.00 85 1020.4
20260507043014 77 141 4.0 7.0 0.00 0.00 0.00 85 1020.4
20260507042510 77 172 2.0 7.0 0.00 0.00 0.00 86 1020.1
20260507042005 77 166 3.0 6.0 0.00 0.00 0.00 86 1020.3
20260507041503 77 182 5.0 7.0 0.00 0.00 0.00 86 1020.3
20260507040959 77 176 4.0 7.0 0.00 0.00 0.00 86 1020.4
20260507040455 77 164 4.0 7.0 0.00 0.00 0.00 87 1020.4
20260507035951 77 166 2.0 7.0 0.00 0.00 0.00 88 1020.5
20260507035448 77 146 4.0 7.0 0.00 0.00 0.00 88 1020.5
20260507034944 77 167 3.0 7.0 0.00 0.00 0.00 88 1020.4
20260507034441 77 184 4.0 8.0 0.00 0.00 0.00 88 1020.7
20260507033940 77 151 3.0 6.0 0.00 0.00 0.00 89 1020.5
20260507033437 77 175 5.0 8.0 0.00 0.00 0.00 89 1020.5
20260507032934 78 180 5.0 8.0 0.00 0.00 0.00 90 1020.7
20260507032431 78 164 4.0 8.0 0.00 0.00 0.00 90 1020.4
20260507031927 78 183 5.0 8.0 0.00 0.00 0.00 89 1020.6
20260507031426 78 186 5.0 8.0 0.00 0.00 0.00 90 1020.8
20260507030920 78 166 3.0 6.0 0.00 0.00 0.00 89 1020.8
20260507030418 78 177 4.0 7.0 0.00 0.00 0.00 89 1020.4
20260507025914 78 173 5.0 7.0 0.00 0.00 0.00 89 1020.8
20260507025412 79 183 4.0 7.0 0.00 0.00 0.00 89 1020.7
20260507024910 79 178 3.0 3.0 0.00 0.00 0.00 88 1020.6
20260507024407 79 212 3.0 3.0 0.00 0.00 0.00 88 1020.5
20260507023902 79 206 2.0 2.0 0.00 0.00 0.00 88 1020.7
20260507023359 79 234 1.0 2.0 0.00 0.00 0.00 88 1020.8
20260507022858 79 289 2.0 2.0 0.00 0.00 0.00 88 1020.5
20260507022354 79 280 2.0 3.0 0.00 0.00 0.00 88 1020.5
20260507021849 79 296 3.0 4.0 0.00 0.00 0.00 88 1020.7
20260507021344 79 325 4.0 6.0 0.00 0.00 0.00 87 1020.7
20260507020843 79 340 4.0 4.0 0.00 0.00 0.00 87 1020.3
20260507020339 79 12 2.0 4.0 0.00 0.00 0.00 87 1020.5
20260507015836 80 335 1.0 6.0 0.00 0.00 0.00 87 1020.4
20260507015334 79 330 5.0 7.0 0.00 0.00 0.00 87 1020.2
20260507014831 79 356 4.0 8.0 0.00 0.00 0.00 87 1020.4
20260507014327 79 320 4.0 7.0 0.00 0.00 0.00 87 1020.3
20260507013823 79 330 3.0 4.0 0.00 0.00 0.00 87 1020.3
20260507013321 79 1 2.0 3.0 0.00 0.00 0.00 87 1020.3
20260507012818 79 342 3.0 4.0 0.00 0.00 0.00 87 1020.2
20260507012314 79 335 5.0 8.0 0.00 0.00 0.00 86 1020.2
20260507011811 79 349 7.0 8.0 0.00 0.00 0.00 86 1020.2
20260507011308 79 344 5.0 7.0 0.00 0.00 0.00 86 1020.1
20260507010808 79 340 4.0 8.0 0.00 0.00 0.00 86 1020.0
20260507010304 79 347 5.0 8.0 0.00 0.00 0.00 86 1020.1
20260507005801 80 357 4.0 4.0 0.00 0.00 0.00 86 1020.0
20260507005257 80 339 7.0 8.0 0.00 0.00 0.00 86 1020.1
20260507004754 80 359 6.0 8.0 0.00 0.00 0.00 85 1020.2
20260507004252 80 330 5.0 8.0 0.00 0.00 0.00 85 1020.0
20260507003748 80 345 4.0 7.0 0.00 0.00 0.00 85 1020.2
20260507003243 80 349 4.0 8.0 0.00 0.00 0.00 85 1020.0
20260507002740 80 327 7.0 8.0 0.00 0.00 0.00 84 1020.2
20260507002236 80 326 7.0 9.0 0.00 0.00 0.00 84 1019.8
20260507001733 80 336 8.0 9.0 0.00 0.00 0.00 84 1019.8
20260507001230 80 342 5.0 9.0 0.00 0.00 0.00 83 1019.7
20260507000727 80 358 4.0 9.0 0.00 0.00 0.00 83 1020.0
20260507000222 80 338 8.0 9.0 0.00 0.00 0.00 82 1019.9
20260506235719 80 15 4.0 8.0 0.00 0.00 0.00 82 1019.9
20260506235214 80 338 5.0 6.0 0.00 0.00 0.00 83 1019.7
20260506234712 80 327 5.0 8.0 0.00 0.00 0.00 82 1019.5
20260506234209 80 347 4.0 8.0 0.00 0.00 0.00 82 1019.8
20260506233707 80 3 4.0 6.0 0.00 0.00 0.00 82 1019.8
20260506233203 80 336 7.0 8.0 0.00 0.00 0.00 81 1019.5
20260506232659 80 2 9.0 9.0 0.00 0.00 0.00 80 1019.5
20260506232154 80 22 4.0 8.0 0.00 0.00 0.00 80 1019.5
20260506231652 80 10 7.0 9.0 0.00 0.00 0.00 80 1019.7
20260506231150 80 349 6.0 8.0 0.00 0.00 0.00 79 1019.6
20260506230647 83 312 9.0 10.0 0.00 0.00 0.00 77 1019.3
20260506230143 0 137 8.0 9.0 0.00 0.00 0.00 1019.4
20260506225640 0 13 4.0 4.0 0.00 0.00 0.00 1019.0
20260506225137 0 331 3.0 6.0 0.00 0.00 0.00 1019.2
20260506224633 0 21 6.0 8.0 0.00 0.00 0.00 1019.4
20260506224130 0 17 7.0 8.0 0.00 0.00 0.00 1019.1
20260506223626 0 16 5.0 6.0 0.00 0.00 0.00 1019.3
20260506223122 0 22 6.0 7.0 0.00 0.00 0.00 1018.8
20260506222620 0 37 4.0 8.0 0.00 0.00 0.00 1019.0
20260506222116 0 19 6.0 9.0 0.00 0.00 0.00 1018.8
20260506221614 0 24 6.0 7.0 0.00 0.00 0.00 1018.9
20260506221111 0 15 4.0 7.0 0.00 0.00 0.00 1018.7
20260506220608 0 21 6.0 8.0 0.00 0.00 0.00 1018.7
20260506215600 0 26 5.0 7.0 0.00 0.00 0.00 1018.7
20260506215055 0 36 3.0 8.0 0.00 0.00 0.00 1018.7
20260506214552 0 13 7.0 8.0 0.00 0.00 0.00 1018.8
20260506214050 0 30 5.0 8.0 0.00 0.00 0.00 1018.7
20260506213548 0 15 7.0 9.0 0.00 0.00 0.00 1018.6
20260506213045 0 12 6.0 8.0 0.00 0.00 0.00 1018.7
20260506212541 0 17 5.0 8.0 0.00 0.00 0.00 1018.4
20260506212036 0 24 7.0 8.0 0.00 0.00 0.00 1018.4
20260506211532 0 28 6.0 8.0 0.00 0.00 0.00 1018.3
20260506211030 0 22 6.0 8.0 0.00 0.00 0.00 1018.5
20260506210526 0 38 3.0 6.0 0.00 0.00 0.00 1018.6
20260506210023 0 23 5.0 7.0 0.00 0.00 0.00 1018.5
20260506205520 0 47 6.0 8.0 0.00 0.00 0.00 1018.3
20260506205015 0 29 5.0 7.0 0.00 0.00 0.00 1018.5
20260506204514 0 32 6.0 8.0 0.00 0.00 0.00 1018.5
20260506204010 0 27 5.0 8.0 0.00 0.00 0.00 1018.3
20260506203508 0 32 6.0 9.0 0.00 0.00 0.00 1018.4
20260506203004 0 56 6.0 9.0 0.00 0.00 0.00 1018.2
20260506202502 0 26 8.0 9.0 0.00 0.00 0.00 1018.2
20260506201958 0 30 11.0 11.0 0.00 0.00 0.00 1018.4
20260506201455 0 16 7.0 9.0 0.00 0.00 0.00 1018.5
20260506200946 0 34 9.0 11.0 0.00 0.00 0.00 1018.4
20260506200442 0 38 11.0 14.0 0.00 0.00 0.00 1018.5
20260506195939 0 53 5.0 10.0 0.00 0.00 0.00 1018.6